Bonaire, Netherlands

5:49 AM AST on November 25, 2017 (GMT -0400)
Flamingo

Weather History for TNCB - October, 2011

Change the Weather History Date:

Tuesday, October 25, 2011

  Actual Average Record
Temperature  
Mean Temperature 82 °F -  
Max Temperature 87 °F 86 °F 93 °F (2004)
Min Temperature 77 °F 79 °F 75 °F (2007)
Cooling Degree Days 17    
Growing Degree Days 32 (Base 50)    
Moisture  
Dew Point 76 °F    
Average Humidity 80    
Maximum Humidity 94    
Minimum Humidity 58    
Precipitation  
Precipitation 0.04 in - - ()
Sea Level Pressure  
Sea Level Pressure 29.82 in    
Wind  
Wind Speed 2 mph ()    
Max Wind Speed 9 mph    
Max Gust Speed -    
Visibility 7.0 miles    
Events      
Averages and records for this station are not official NWS values.
T = Trace of Precipitation, MM = Missing Value Source: Averaged Metar Reports

Daily Weather History Graph

Daily Weather History Graph

Search for Another Location

Airport or City:

Trip Planner

Search our weather history database for the weather conditions in past years. The results will help you decide how hot, cold, wet, or windy it might be!

Date:

Astronomy

Oct. 25, 2011 Rise Set
Actual Time 6:24 AM AST 6:09 PM AST
Civil Twilight 6:02 AM AST 6:31 PM AST
Nautical Twilight 5:37 AM AST 6:56 PM AST
Astronomical Twilight 5:12 AM AST 7:21 PM AST
Moon 4:59 AM AST 5:08 PM AST
Length of Visible Light 12h 28m
Length of Day
11h 45m
Waning Crescent, 2% of the Moon is Illuminated
Oct 25
Waning Crescent
Oct 26
New
Nov 2
First Quarter
Nov 10
Full
Nov 18
Last Quarter

Hourly Weather History & Observations

Time (AST) Temp. Heat Index Dew Point Humidity Pressure Visibility Wind Dir Wind Speed Gust Speed Precip Events Conditions
12:00 AM 80.6 °F 86.2 °F 75.2 °F 84% 29.86 in - North - - N/A   Unknown
1:00 AM 78.8 °F - 75.2 °F 89% 29.86 in - North - - N/A   Unknown
2:00 AM 77 °F - 75 °F 91%  in 6 mi Calm Calm - -   Clear
2:00 AM 77.0 °F - 75.2 °F 94% 29.83 in - North - - N/A   Unknown
3:00 AM 78.8 °F - 77.0 °F 94% 29.80 in - North - - N/A   Unknown
4:00 AM 78.8 °F - 75.2 °F 89% 29.80 in - North - - N/A   Unknown
5:00 AM 79 °F - 75 °F 85%  in - Calm Calm - -   Clear
5:00 AM 78.8 °F - 75.2 °F 89% 29.80 in - North - - N/A   Unknown
6:00 AM 78.8 °F - 75.2 °F 89% 29.80 in - North - - N/A   Unknown
7:00 AM 78.8 °F - 75.2 °F 89% 29.80 in - North - - N/A   Unknown
8:00 AM 82 °F - 79 °F 87% 29.88 in 19 mi 1.2 mph - -   Mostly Cloudy
8:00 AM 82.4 °F 94.0 °F 80.6 °F 94% 29.86 in 6.2 mi Variable 1.2 mph - N/A   Mostly Cloudy
9:00 AM 86.0 °F 96.9 °F 77.0 °F 74% 29.89 in 6.2 mi ENE 8.1 mph - N/A   Mostly Cloudy
10:00 AM 86.0 °F 95.1 °F 75.2 °F 70% 29.89 in 6.2 mi East 9.2 mph - N/A   Scattered Clouds
11:00 AM 88 °F - 75 °F 58% 29.90 in 25 mi ENE 5.8 mph - -   Partly Cloudy
11:00 AM 87.8 °F 97.6 °F 75.2 °F 66% 29.89 in 6.2 mi ENE 5.8 mph - N/A   Scattered Clouds
1:00 PM 86.0 °F 96.9 °F 77.0 °F 74% 29.83 in - North - - N/A   Unknown
2:00 PM 87 °F - 76 °F 61%  in 6 mi Calm Calm - -   Clear
2:00 PM 87.8 °F 97.6 °F 75.2 °F 66% 29.80 in - North - - N/A   Unknown
3:00 PM 86.0 °F 96.9 °F 77.0 °F 74% 29.80 in 6.2 mi West 5.8 mph - N/A   Scattered Clouds
4:00 PM 86.0 °F 96.9 °F 77.0 °F 74% 29.77 in 6.2 mi NNW 3.5 mph - N/A   Scattered Clouds
5:00 PM 84 °F - 76 °F 71% 29.79 in 25 mi NNW 2.3 mph - -   Partly Cloudy
5:00 PM 84.2 °F 94.1 °F 77.0 °F 79% 29.77 in 6.2 mi NNW 2.3 mph - N/A   Scattered Clouds
6:00 PM 82.4 °F 89.5 °F 75.2 °F 79% 29.77 in - North - - N/A   Unknown
7:00 PM 82.4 °F 89.5 °F 75.2 °F 79% 29.77 in 6.2 mi Calm Calm - N/A   Scattered Clouds
8:00 PM 82 °F - 74 °F 70% 29.80 in 22 mi East 1.2 mph - -   Partly Cloudy
8:00 PM 82.4 °F 88.2 °F 73.4 °F 74% 29.77 in 6.2 mi East 1.2 mph - N/A   Scattered Clouds
9:00 PM 80.6 °F 86.2 °F 75.2 °F 84% 29.80 in - North - - N/A   Unknown
10:00 PM 80.6 °F 86.2 °F 75.2 °F 84% 29.83 in 6.2 mi Calm Calm - N/A   Scattered Clouds
11:00 PM 80 °F - 75 °F 81%  in 6 mi Calm Calm - -   Clear
11:00 PM 80.6 °F 86.2 °F 75.2 °F 84% 29.83 in 6.2 mi Calm Calm - N/A   Scattered Clouds